Header for Extended Forecast Station List Page

Search by: ID | Name | Date | Parm | Value | Avg | % Avg
Sort by: ID | Name | Date | Parm | Value | Avg | % Avg

Enter search or view all records.

Click on id for station plot
#IDNameDateParmValueAvg% Avg
0LEOI1KOOTENAI-AT LEONIA05-13-2024DISCHARGE (KAF)3386398585
1FCFM8NF FLATHEAD-NEAR COLUMBIA FALLS05-13-2024DISCHARGE (KAF)883121673
2WGCM8MF FLATHEAD-NEAR WEST GLACIER05-13-2024DISCHARGE (KAF)935115281
3CFMM8FLATHEAD-AT COLUMBIA FALLS05-13-2024DISCHARGE (KAF)2820336184
4DLGM8CLARK FORK-AT DEER LODGE05-13-2024DISCHARGE (KAF)176128
5DRMM8CLARK FORK-NR DRUMMOND05-13-2024DISCHARGE (KAF)7517942
6RCCM8ROCK CREEK-NEAR CLINTON05-13-2024DISCHARGE (KAF)13720666
7BONM8BLACKFOOT-NEAR BONNER05-13-2024DISCHARGE (KAF)24754845
8ABOM8CLARK FORK-ABOVE MISSOULA05-13-2024DISCHARGE (KAF)47899748
9BITM8BITTERROOT-NEAR MISSOULA05-13-2024DISCHARGE (KAF)59288367
10BELM8CLARK FORK-BELOW MISSOULA05-13-2024DISCHARGE (KAF)1070191756
11STRM8ST. REGIS-NEAR ST. REGIS05-13-2024DISCHARGE (KAF)10415070
12SRGM8CLARK FORK-AT ST REGIS05-13-2024DISCHARGE (KAF)1457249858
13PRTI1PRIEST-NEAR PRIEST RIVER05-13-2024DISCHARGE (KAF)28849758
14SPOW1SPOKANE-AT SPOKANE05-13-2024DISCHARGE (KAF)582119749
15SATI1ST MARIES-NEAR SANTA05-13-2024DISCHARGE (KAF)244750
16CIBW1COLUMBIA-AT INTL BOUNDARY05-13-2024DISCHARGE (KAF)225422966376
17LAUW1KETTLE-AT LAURIER05-13-2024DISCHARGE (KAF)680116558
18TONW1OKANOGAN-NEAR TONASKET05-13-2024DISCHARGE (KAF)469116640
19PATW1METHOW-NEAR PATEROS05-13-2024DISCHARGE (KAF)41864565
20ARDW1ENTIAT-NEAR ARDENVOIR05-13-2024DISCHARGE (KAF)12315679
21PESW1WENATCHEE-AT PESHASTIN05-13-2024DISCHARGE (KAF)83999884
22EASW1YAKIMA-AT EASTON05-13-2024DISCHARGE (KAF)758490
23TNAW1TEANAWAY-BELOW FORKS05-13-2024DISCHARGE (KAF)405573
24UMTW1YAKIMA-AT UMTANUM05-13-2024DISCHARGE (KAF)64282178
25CLFW1NACHES-NEAR CLIFFDEL05-13-2024DISCHARGE (KAF)20725382
26NACW1NACHES-NEAR NACHES05-13-2024DISCHARGE (KAF)34438390
27PARW1YAKIMA-NEAR PARKER05-13-2024DISCHARGE (KAF)16531952
28KIOW1YAKIMA-AT KIONA05-13-2024DISCHARGE (KAF)46858580
29CHEI1FALL RIVER-NEAR CHESTER05-13-2024DISCHARGE (KAF)19524380
30ANTI1HENRYS FORK-AT ST. ANTHONY05-13-2024DISCHARGE (KAF)35946977
31TEAI1TETON-NEAR ST. ANTHONY05-13-2024DISCHARGE (KAF)381319119
32REXI1HENRYS FORK-AT REXBURG05-13-2024DISCHARGE (KAF)47654288
33JKSW4SNAKE-NEAR JACKSON05-13-2024DISCHARGE (KAF)17111557110
34ALPW4SNAKE-NEAR ALPINE05-13-2024DISCHARGE (KAF)20911910109
35HEII1SNAKE-NEAR HEISE05-13-2024DISCHARGE (KAF)31492914108
36SIFI1SNAKE-AB EAGLE ROCK NR IDAHO FALLS05-13-2024DISCHARGE (KAF)22311914117
37SHYI1SNAKE-NEAR SHELLEY05-13-2024DISCHARGE (KAF)20361712119
38SNAI1SNAKE-AT BLACKFOOT05-13-2024DISCHARGE (KAF)14031039135
39BFTI1SNAKE-NEAR BLACKFOOT05-13-2024DISCHARGE (KAF)14251002142
40PIHI1PORTNEUF-AT POCATELLO05-13-2024DISCHARGE (KAF)6127222
41MILI1SNAKE-AT MILNER05-13-2024DISCHARGE (KAF)35348729
42HOTI1BRUNEAU-NEAR HOT SPRINGS05-13-2024DISCHARGE (KAF)939993
43SWAI1SNAKE-BELOW SWAN FALLS05-13-2024DISCHARGE (KAF)20301667122
44HWRI1BIG LOST-AT HOWELL RANCH NEAR CHILLY05-13-2024DISCHARGE (KAF)161122132
45HALI1BIG WOOD-AT HAILEY05-13-2024DISCHARGE (KAF)157156101
46BIGI1BOISE-AT GLENWOOD BRIDGE05-13-2024DISCHARGE (KAF)315269117
47PARI1BOISE-NEAR PARMA05-13-2024DISCHARGE (KAF)284233122
48EMMI1PAYETTE-NEAR EMMETT05-13-2024DISCHARGE (KAF)64285575
49WSRI1WEISER-NEAR WEISER05-13-2024DISCHARGE (KAF)171170101
50WEII1SNAKE-AT WEISER05-13-2024DISCHARGE (KAF)33803062110
51WHBI1SALMON-AT WHITEBIRD05-13-2024DISCHARGE (KAF)3838420291
52TRYO3GRANDE RONDE-TROY05-13-2024DISCHARGE (KAF)43071960
53ANAW1SNAKE-NEAR ANATONE05-13-2024DISCHARGE (KAF)8119917788
54ORFI1CLEARWATER-AT OROFINO05-13-2024DISCHARGE (KAF)2243278181
55SPDI1CLEARWATER-AT SPALDING05-13-2024DISCHARGE (KAF)4019482483
56TCHW1WALLA WALLA-NEAR TOUCHET05-13-2024DISCHARGE (KAF)264261
57GIBO3UMATILLA-NEAR GIBBON05-13-2024DISCHARGE (KAF)252790
58PDTO3UMATILLA-AT PENDLETON05-13-2024DISCHARGE (KAF)394292
59MYKO3MCKAY CREEK-NEAR PILOT ROCK05-13-2024DISCHARGE (KAF)3566
60UMAO3UMATILLA-NEAR UMATILLA05-13-2024DISCHARGE (KAF)323884
61MONO3NF JOHN DAY-AT MONUMENT05-13-2024DISCHARGE (KAF)16121575
62SERO3JOHN DAY-AT SERVICE CK05-13-2024DISCHARGE (KAF)25830983
63MODO3DESCHUTES-AT MOODY NR BIGGS05-13-2024DISCHARGE (KAF)1125115098
64PITW1KLICKITAT-NEAR PITT05-13-2024DISCHARGE (KAF)29931296
65HODO3HOOD-NEAR TUCKER BRIDGE05-13-2024DISCHARGE (KAF)13113696
66UNDW1WHITE SALMON-NEAR UNDERWOOD05-13-2024DISCHARGE (KAF)19422686
67LYDM8KOOTENAI-LIBBY DAM05-13-2024INFLOW (KAF)4097479685
68HHWM8SF FLATHEAD-HUNGRY HORSE DAM05-13-2024INFLOW (KAF)1016135775
69KERM8FLATHEAD-SELI’Š KSANKA QLISPE’ DAM05-13-2024INFLOW (KAF)3147403678
70NOXM8CLARK FORK-NOXON RAPIDS DAM05-13-2024INFLOW (KAF)4424665666
71CABI1CLARK FORK-CABINET GORGE DAM05-13-2024INFLOW (KAF)4841729866
72ALFW1PEND OREILLE-ALBENI FALLS DAM05-13-2024INFLOW (KAF)5394788568
73COEI1COEUR D ALENE-COEUR D ALENE LAKE05-13-2024INFLOW (KAF)553108751
74LLKW1SPOKANE-AT LONGLAKE05-13-2024INFLOW (KAF)727139252
75GCDW1COLUMBIA-GRAND COULEE DAM05-13-2024INFLOW (KAF)239952996380
76CHJW1COLUMBIA-CHIEF JOSEPH DAM05-13-2024INFLOW (KAF)224192853479
77WELW1COLUMBIA-WELLS DAM05-13-2024INFLOW (KAF)233263050176
78CHDW1CHELAN-LAKE CHELAN DAM05-13-2024INFLOW (KAF)49879762
79RRHW1COLUMBIA-ROCKY REACH DAM05-13-2024INFLOW (KAF)237273139876
80WANW1COLUMBIA-WANAPUM DAM05-13-2024INFLOW (KAF)245823241576
81PRWW1COLUMBIA-PRIEST RAPIDS DAM05-13-2024INFLOW (KAF)245333252075
82KEDW1YAKIMA-KEECHELUS LAKE05-13-2024INFLOW (KAF)466868
83KADW1KACHESS-KACHESS DAM05-13-2024INFLOW (KAF)365861
84CLUW1CLE ELUM-CLE ELUM LAKE05-13-2024INFLOW (KAF)18225671
85BUDW1BUMPING-BUMPING LAKE DAM05-13-2024INFLOW (KAF)677688
86RILW1TIETON-RIMROCK LAKE NEAR RIMROCK05-13-2024INFLOW (KAF)12614786
87IPDI1HENRYS FORK-ISLAND PARK DAM05-13-2024INFLOW (KAF)14316885
88JLKW4SNAKE-JACKSON LAKE AT DAM05-13-2024INFLOW (KAF)623605103
89PLDI1SF SNAKE-PALISADES DAM05-13-2024INFLOW (KAF)29032521115
90RIDI1WILLOW CREEK-RIRIE DAM05-13-2024INFLOW (KAF)4118226
91AFRI1SNAKE-AMERICAN FALLS RESERVOIR05-13-2024INFLOW (KAF)20021533131
92MACI1BIG LOST-MACKAY RESERVOIR NEAR MACKAY05-13-2024INFLOW (KAF)14392155
93MAGI1BIG WOOD-MAGIC DAM05-13-2024INFLOW (KAF)105105101
94LWRI1LITTLE WOOD-LITTLE WOOD DAM05-13-2024INFLOW (KAF)353696
95OWYO3OWYHEE-OWYHEE DAM05-13-2024INFLOW (KAF)173109159
96ARAI1SF BOISE-ANDERSON RANCH DAM05-13-2024INFLOW (KAF)18726970
97LUCI1BOISE-LUCKY PEAK DAM05-13-2024INFLOW (KAF)89196293
98WRMO3MALHEUR-WARM SPRINGS DAM05-13-2024INFLOW (KAF)1815120
99BERO3MALHEUR-AGENCY VALLEY DAM05-13-2024INFLOW (KAF)202484
100BULO3BULLY CREEK-BULLY CREEK DAM05-13-2024INFLOW (KAF)1MM
101CSDI1NF PAYETTE-CASCADE DAM05-13-2024INFLOW (KAF)25429387
102DEDI1DEADWOOD-NEAR LOWMAN05-13-2024INFLOW (KAF)708582
103BRNI1SNAKE-BROWNLEE DAM05-13-2024INFLOW (KAF)36133358108
104DWRI1NF CLEARWATER-DWORSHAK DAM05-13-2024INFLOW (KAF)978143168
105LGDW1SNAKE-LOWER GRANITE DAM05-13-2024INFLOW (KAF)121181434185
106LGSW1SNAKE-LITTLE GOOSE DAM05-13-2024INFLOW (KAF)120841431884
107LMNW1SNAKE-LOWER MONUMENTAL DAM05-13-2024INFLOW (KAF)121061429685
108IHDW1SNAKE-ICE HARBOR DAM05-13-2024INFLOW (KAF)121551430385
109MCDW1COLUMBIA-MCNARY DAM05-13-2024INFLOW (KAF)372604810677
110JDAO3COLUMBIA-JOHN DAY DAM05-13-2024INFLOW (KAF)382994818179
111TDAO3COLUMBIA-THE DALLES DAM05-13-2024INFLOW (KAF)386514837880
112BONO3COLUMBIA-BONNEVILLE DAM05-13-2024INFLOW (KAF)392964990979
113HOPI1PEND OREILLE-LAKE PEND OREILLE NR HOPE05-13-2024LAKE ELEVATION (FT)MMM
114BFEI1KOOTENAI-AT BONNERS FERRY05-13-2024STAGE (FT)MMM
115SJMI1ST JOE-AT ST MARIES05-13-2024STAGE (FT)MMM